When you browse on this site, cookies collect data to enhance your experience and personalize the content and advertising you see.
Visit our Privacy Policy to learn more. By continuing to use the site, you agree to this use of cookies and data.
  • In Austria
  • List of Countries
  • For 7 days
  • Water Temperature
  • Weather Map
  • News
  • Weather Widgets
  • user-avatar
    Login

    Hourly Weather Nemocon

    Today, 21 November, Thursday

    Time Temperature Precipitation Wind Pressure Humidity
    00:00 +10°C° 0.3 mm 0 mps 546 mmHg 96%
    01:00 +9°C° 0.3 mm 0 mps 546 mmHg 95%
    02:00 +9°C° 0.2 mm 0 mps 546 mmHg 95%
    03:00 +9°C° 0.2 mm 0 mps 546 mmHg 94%
    04:00 +9°C° 0.2 mm 0 mps 546 mmHg 94%
    05:00 +9°C° 0 mm 0 mps 546 mmHg 93%
    06:00 +10°C° 0 mm 0 mps 547 mmHg 91%
    07:00 +10°C° 0 mm 0 mps 547 mmHg 90%
    08:00 +12°C° 0 mm 0 mps 548 mmHg 82%
    09:00 +14°C° 0 mm 0 mps 549 mmHg 75%
    10:00 +18°C° 0 mm 1 mps 551 mmHg 67%
    11:00 +18°C° 0.6 mm 1 mps 550 mmHg 72%
    12:00 +18°C° 0.6 mm 1 mps 549 mmHg 76%
    13:00 +18°C° 0.6 mm 1 mps 548 mmHg 81%
    14:00 +16°C° 1.5 mm 1 mps 548 mmHg 84%
    15:00 +16°C° 1.5 mm 1 mps 547 mmHg 86%
    16:00 +15°C° 1.5 mm 1 mps 546 mmHg 88%
    17:00 +14°C° 0.9 mm 1 mps 546 mmHg 91%
    18:00 +12°C° 0.9 mm 0 mps 546 mmHg 94%
    19:00 +11°C° 0.9 mm 0 mps 545 mmHg 96%
    20:00 +11°C° 1.5 mm 0 mps 546 mmHg 96%
    21:00 +10°C° 1.5 mm 0 mps 546 mmHg 95%
    22:00 +11°C° 1.5 mm 1 mps 546 mmHg 95%
    23:00 +10°C° 0.3 mm 0 mps 546 mmHg 94%

    Tomorrow, 22 November, Friday

    Time Temperature Precipitation Wind Pressure Humidity
    00:00 +9°C° 0.3 mm 0 mps 546 mmHg 94%
    01:00 +9°C° 0.3 mm 0 mps 545 mmHg 94%
    02:00 +9°C° 0 mm 0 mps 545 mmHg 93%
    03:00 +8°C° 0 mm 0 mps 545 mmHg 93%
    04:00 +8°C° 0 mm 0 mps 544 mmHg 93%
    05:00 +9°C° 0 mm 0 mps 545 mmHg 92%
    06:00 +10°C° 0 mm 0 mps 546 mmHg 90%
    07:00 +10°C° 0 mm 0 mps 547 mmHg 89%
    08:00 +13°C° 0.1 mm 0 mps 548 mmHg 80%
    09:00 +15°C° 0.1 mm 0 mps 549 mmHg 72%
    10:00 +20°C° 0.1 mm 1 mps 551 mmHg 63%
    11:00 +19°C° 0.9 mm 1 mps 550 mmHg 70%
    12:00 +18°C° 0.9 mm 1 mps 549 mmHg 76%
    13:00 +18°C° 0.9 mm 1 mps 548 mmHg 82%
    14:00 +16°C° 1.7 mm 1 mps 547 mmHg 85%
    15:00 +15°C° 1.7 mm 1 mps 546 mmHg 88%
    16:00 +15°C° 1.7 mm 1 mps 545 mmHg 91%
    17:00 +14°C° 0.8 mm 1 mps 545 mmHg 93%
    18:00 +13°C° 0.8 mm 1 mps 545 mmHg 94%
    19:00 +12°C° 0.8 mm 1 mps 545 mmHg 96%
    20:00 +11°C° 0.4 mm 0 mps 546 mmHg 95%
    21:00 +10°C° 0.4 mm 0 mps 546 mmHg 94%
    22:00 +10°C° 0.4 mm 0 mps 546 mmHg 93%
    23:00 +10°C° 0.2 mm 0 mps 546 mmHg 93%

    Day after tomorrow, 23 November, Saturday

    Time Temperature Precipitation Wind Pressure Humidity
    00:00 +10°C° 0.2 mm 0 mps 546 mmHg 93%
    01:00 +10°C° 0.2 mm 0 mps 545 mmHg 93%
    02:00 +9°C° 0 mm 0 mps 545 mmHg 94%
    03:00 +9°C° 0 mm 0 mps 545 mmHg 94%
    04:00 +8°C° 0 mm 0 mps 544 mmHg 94%
    05:00 +9°C° 0 mm 0 mps 545 mmHg 93%
    06:00 +10°C° 0 mm 0 mps 546 mmHg 92%
    07:00 +10°C° 0 mm 0 mps 547 mmHg 90%
    08:00 +13°C° 0 mm 0 mps 548 mmHg 81%
    09:00 +15°C° 0 mm 0 mps 550 mmHg 71%
    10:00 +18°C° 0 mm 0 mps 551 mmHg 62%
    11:00 +19°C° 0.6 mm 1 mps 550 mmHg 68%
    12:00 +19°C° 0.6 mm 1 mps 549 mmHg 74%
    13:00 +18°C° 0.6 mm 1 mps 548 mmHg 80%
    14:00 +16°C° 1.5 mm 1 mps 547 mmHg 84%
    15:00 +15°C° 1.5 mm 1 mps 546 mmHg 87%
    16:00 +15°C° 1.5 mm 1 mps 546 mmHg 91%
    17:00 +14°C° 1.5 mm 1 mps 546 mmHg 93%
    18:00 +12°C° 1.5 mm 0 mps 546 mmHg 95%
    19:00 +11°C° 1.5 mm 0 mps 546 mmHg 97%
    20:00 +11°C° 2.3 mm 0 mps 546 mmHg 97%
    21:00 +11°C° 2.3 mm 0 mps 546 mmHg 96%
    22:00 +11°C° 2.3 mm 0 mps 547 mmHg 96%
    23:00 +11°C° 0.4 mm 0 mps 546 mmHg 95%

    24 November, Sunday

    Time Temperature Precipitation Wind Pressure Humidity
    00:00 +10°C° 0.4 mm 0 mps 546 mmHg 95%
    01:00 +10°C° 0.4 mm 0 mps 546 mmHg 94%
    02:00 +10°C° 0 mm 0 mps 545 mmHg 94%
    03:00 +9°C° 0 mm 0 mps 545 mmHg 94%
    04:00 +9°C° 0 mm 0 mps 545 mmHg 94%
    05:00 +10°C° 0 mm 0 mps 545 mmHg 93%
    06:00 +10°C° 0 mm 0 mps 546 mmHg 92%
    07:00 +11°C° 0 mm 0 mps 547 mmHg 91%
    08:00 +13°C° 0 mm 0 mps 548 mmHg 83%
    09:00 +16°C° 0 mm 1 mps 549 mmHg 75%
    10:00 +19°C° 0 mm 1 mps 550 mmHg 67%
    11:00 +19°C° 0.5 mm 1 mps 550 mmHg 69%
    12:00 +19°C° 0.5 mm 1 mps 549 mmHg 71%
    13:00 +19°C° 0.5 mm 1 mps 548 mmHg 72%
    14:00 +18°C° 1 mm 1 mps 547 mmHg 77%
    15:00 +16°C° 1 mm 1 mps 547 mmHg 82%
    16:00 +15°C° 1 mm 1 mps 546 mmHg 87%
    17:00 +14°C° 0.7 mm 1 mps 546 mmHg 90%
    18:00 +13°C° 0.7 mm 1 mps 546 mmHg 93%
    19:00 +11°C° 0.7 mm 0 mps 545 mmHg 96%
    20:00 +11°C° 0.2 mm 0 mps 546 mmHg 96%
    21:00 +12°C° 0.2 mm 1 mps 546 mmHg 96%
    22:00 +11°C° 0.2 mm 1 mps 546 mmHg 96%
    23:00 +11°C° 0 mm 1 mps 546 mmHg 96%

    25 November, Monday

    Time Temperature Precipitation Wind Pressure Humidity
    00:00 +10°C° 0 mm 0 mps 545 mmHg 96%
    01:00 +10°C° 0 mm 0 mps 545 mmHg 95%
    02:00 +9°C° 0 mm 0 mps 544 mmHg 95%
    03:00 +9°C° 0 mm 0 mps 544 mmHg 94%
    04:00 +8°C° 0 mm 0 mps 544 mmHg 93%
    05:00 +9°C° 0 mm 0 mps 544 mmHg 92%
    06:00 +9°C° 0 mm 0 mps 545 mmHg 90%
    07:00 +10°C° 0 mm 0 mps 546 mmHg 88%
    08:00 +14°C° 0 mm 1 mps 547 mmHg 79%
    09:00 +16°C° 0 mm 1 mps 548 mmHg 70%
    10:00 +19°C° 0 mm 1 mps 550 mmHg 61%
    11:00 +19°C° 0.2 mm 1 mps 549 mmHg 62%
    12:00 +19°C° 0.2 mm 2 mps 548 mmHg 63%
    13:00 +19°C° 0.2 mm 2 mps 548 mmHg 64%
    14:00 +18°C° 0.6 mm 2 mps 547 mmHg 70%
    15:00 +18°C° 0.6 mm 2 mps 546 mmHg 76%
    16:00 +18°C° 0.6 mm 1 mps 545 mmHg 82%
    17:00 +15°C° 0.4 mm 1 mps 545 mmHg 86%
    18:00 +13°C° 0.4 mm 1 mps 545 mmHg 91%
    19:00 +12°C° 0.4 mm 1 mps 544 mmHg 96%
    20:00 +11°C° 0 mm 1 mps 544 mmHg 96%
    21:00 +11°C° 0 mm 1 mps 545 mmHg 96%
    22:00 +11°C° 0 mm 1 mps 545 mmHg 96%
    23:00 +11°C° 0 mm 1 mps 544 mmHg 96%

    26 November, Tuesday

    Time Temperature Precipitation Wind Pressure Humidity
    00:00 +11°C° 0 mm 1 mps 544 mmHg 96%
    01:00 +10°C° 0 mm 1 mps 544 mmHg 95%
    02:00 +10°C° 0 mm 1 mps 544 mmHg 95%
    03:00 +10°C° 0 mm 1 mps 544 mmHg 95%
    04:00 +10°C° 0 mm 1 mps 543 mmHg 95%
    05:00 +10°C° 0 mm 1 mps 544 mmHg 94%
    06:00 +11°C° 0 mm 1 mps 545 mmHg 93%
    07:00 +12°C° 0 mm 1 mps 546 mmHg 93%
    08:00 +14°C° 0.2 mm 1 mps 547 mmHg 87%
    09:00 +15°C° 0.2 mm 1 mps 548 mmHg 81%
    10:00 +17°C° 0.2 mm 2 mps 549 mmHg 75%
    11:00 +18°C° 0.6 mm 2 mps 548 mmHg 74%
    12:00 +18°C° 0.6 mm 3 mps 548 mmHg 72%
    13:00 +19°C° 0.6 mm 3 mps 548 mmHg 71%
    14:00 +18°C° 0.5 mm 3 mps 547 mmHg 74%
    15:00 +17°C° 0.5 mm 2 mps 546 mmHg 77%
    16:00 +17°C° 0.5 mm 2 mps 546 mmHg 79%
    17:00 +15°C° 0.2 mm 2 mps 545 mmHg 85%
    18:00 +13°C° 0.2 mm 1 mps 545 mmHg 90%
    19:00 +12°C° 0.2 mm 1 mps 544 mmHg 95%
    20:00 +11°C° 0 mm 1 mps 545 mmHg 95%
    21:00 +11°C° 0 mm 1 mps 545 mmHg 95%
    22:00 +11°C° 0 mm 1 mps 545 mmHg 95%
    23:00 +10°C° 0 mm 1 mps 544 mmHg 95%
    Show more